Flight Track Log - Related Links

Times and Time Zones

All times are in EDT time to prevent confusion due to time zone crossing. See the N483DA flight status page for this flight to view local times or setup timezone preferences in your user account.

Time Position Orientation Groundspeed Altitude Reporting Facility
EDT Latitude Longitude Course Direction KTS MPH feet Rate Location/Type
Tue 01:38:48 PM 27.9833 -81.7667 360° North 96 110 1,200  Level Tampa TRACON
Tue 01:39:34 PM 28.0000 -81.7667 360° North 93 107 1,700 559 Climbing Orlando TRACON
Tue 01:40:46 PM 28.0333 -81.7833 336° Northwest 105 121 2,300 545 Climbing Orlando TRACON
Tue 01:41:46 PM 28.0500 -81.7667 41° Northeast 105 121 2,900 350 Climbing Orlando TRACON
Tue 01:42:46 PM 28.0833 -81.7500 24° Northeast 113 130 3,000  Climbing Orlando TRACON
Tue 01:43:46 PM 28.1167 -81.7333 24° Northeast 129 148 2,900  Descending Orlando TRACON
Tue 01:44:58 PM 28.1667 -81.7167 16° North 129 148 3,000 48 Climbing Orlando TRACON
Tue 01:45:52 PM 28.1833 -81.7000 41° Northeast 128 147 3,000  Level Orlando TRACON
Tue 01:46:53 PM 28.2167 -81.7000 360° North 123 142 3,000  Level Orlando TRACON
Tue 01:47:47 PM 28.2500 -81.6833 24° Northeast 126 145 3,000  Level Orlando TRACON
Tue 01:48:47 PM 28.2833 -81.6667 24° Northeast 133 153 3,000 -53 Level Orlando TRACON
Tue 01:49:41 PM 28.3167 -81.6500 24° Northeast 129 148 2,900 -50 Descending Orlando TRACON
Tue 01:50:47 PM 28.3500 -81.6500 360° North 123 142 2,900 50 Level Orlando TRACON
Tue 01:51:41 PM 28.3833 -81.6333 24° Northeast 130 150 3,000 53 Climbing Orlando TRACON
Tue 01:52:41 PM 28.4167 -81.6167 24° Northeast 131 151 3,000 -50 Level Orlando TRACON
Tue 01:53:41 PM 28.4500 -81.6000 24° Northeast 131 151 2,900 -50 Descending Orlando TRACON
Tue 01:54:41 PM 28.4833 -81.5833 24° Northeast 130 150 2,900  Level Orlando TRACON
Tue 01:55:41 PM 28.5167 -81.5667 24° Northeast 123 142 2,900 45 Level Orlando TRACON
Tue 01:56:54 PM 28.5667 -81.5500 16° North 128 147 3,000 50 Climbing Orlando TRACON
Tue 01:57:42 PM 28.6000 -81.5500 360° North 138 159 3,000  Level Orlando TRACON
Tue 01:58:42 PM 28.6333 -81.5500 360° North 139 160 3,000 -182 Level Orlando TRACON
Tue 01:59:54 PM 28.6667 -81.5167 41° Northeast 131 151 2,600 -421 Descending Orlando TRACON
Tue 02:00:36 PM 28.6833 -81.5000 41° Northeast 126 145 2,200 -412 Descending Orlando TRACON
Tue 02:01:36 PM 28.7167 -81.4833 24° Northeast 122 140 1,900 -100 Descending Orlando TRACON
Tue 02:02:36 PM 28.7333 -81.4500 60° Northeast 109 125 2,000 -136 Climbing Orlando TRACON
Tue 02:03:48 PM 28.7667 -81.4333 24° Northeast 121 139 1,600 -182 Descending Orlando TRACON
Tue 02:04:48 PM 28.7833 -81.4000 60° Northeast 108 124 1,600  Level Orlando TRACON
Tue 02:05:49 PM 28.7833 -81.3667 90° East 110 127 1,600 -99 Level Orlando TRACON
Tue 02:06:49 PM 28.7833 -81.3333 90° East 103 119 1,400 -409 Descending Orlando TRACON
Tue 02:08:01 PM 28.7833 -81.3000 90° East 88 101 700 -583 Descending Orlando TRACON

Login

Don't have an account? Register now (free) for customized features, flight alerts, and more!